[[{"header":{"parameterUnit":"m.s-1","parameterCategory":1,"la1":30.2991,"la2":30.254,"lo1":-89.0895,"lo2":-89.0444,"dy":0.0017,"dx":0.0017,"nx":28,"ny":28,"refTime":"2025-03-18T09:00:00:Z","depth":0,"parameterNumber":2,"parameterNumberName":"U-component_of_WINDS"},"data":[0,0,0,0,0,0,0,0,0,0,0,0,0,0,0,0,0,0,0,0,0,0,0,0,0,0,0,0,0,0,0,0,0,0,0,0,0,0,0,0,0,0,0,0,0,0,0,0,0,0,0,0,0,0,0,0,0,0,1.0886,1.0885,0,1.0802,1.0801,1.08,1.0692,1.069,1.0688,1.0686,1.0606,1.0605,1.0605,0,0,0,0,0,0,0,0,0,0,0,0,0,1.0956,1.0955,1.0886,1.0885,1.0884,1.0802,1.0801,1.08,1.0692,1.069,1.0688,1.0686,1.0606,1.0605,1.0605,0,0,0,0,0,0,0,0,0,0,0,0,0,1.0905,1.0955,1.0886,1.082,1.0813,1.0802,1.0801,1.08,1.0692,1.069,1.0687,1.0685,1.0606,1.0605,1.0604,1.0653,0,0,1.0602,1.0602,0,0,0,0,0,0,0,0,1.0908,1.0902,1.0831,1.0824,1.0817,1.0754,1.0796,1.0751,1.0693,1.0738,1.0686,1.0683,1.0658,1.0652,1.0643,1.065,1.0646,1.0602,1.0602,1.0601,1.0601,0,0,0,0,0,0,0,1.0911,1.0905,1.0853,1.083,1.0821,1.0796,1.0785,1.0787,1.0714,1.0734,1.0726,1.0718,1.0653,1.0644,1.064,1.0645,1.0602,1.0602,1.0601,1.0601,1.0688,1.0691,0,0,0,0,0,0,1.0924,1.0909,1.0855,1.085,1.0856,1.0797,1.0785,1.0777,1.0714,1.0701,1.072,1.0713,1.0646,1.0641,1.0637,1.069,1.0601,1.0601,1.06,1.0685,1.0688,1.0691,0,0,0,0,0,0,1.0926,1.092,1.0859,1.0877,1.0867,1.0798,1.079,1.0777,1.0767,1.0703,1.069,1.0723,1.0644,1.0638,1.065,1.0686,1.06,1.06,1.0682,1.0686,1.069,1.0797,0,0,0,0,0,0,1.0929,1.0922,1.0939,1.0878,1.0867,1.0872,1.0792,1.0777,1.0766,1.0756,1.0702,1.0691,1.0641,1.0651,1.0649,1.0683,1.0599,1.0678,1.0684,1.0689,1.079,1.0804,1.0817,0,0,0,0,0,1.0931,1.0973,1.094,1.0934,1.0886,1.0874,1.0868,1.0808,1.0769,1.0786,1.0745,1.0693,1.0682,1.0654,1.065,1.0684,1.0676,1.0682,1.0688,1.0784,1.0802,1.0816,0,0,0,0,0,0,1.1041,1.0964,1.0926,1.0949,1.0919,1.0856,1.0876,1.0829,1.081,1.0802,1.073,1.0719,1.074,1.0713,1.0683,1.0728,1.0671,1.0677,1.0745,1.0761,1.0775,1.0781,1.0599,0,0,0,0,0,1.1068,1.1063,1.0996,1.1023,1.101,1.0946,1.0938,1.0895,1.0861,1.0848,1.0808,1.0779,1.0768,1.0763,1.075,1.0785,1.0773,1.0807,1.0821,1.0832,1.0838,1.0855,1.087,1.0712,1.0712,1.0712,0,0,1.1123,1.108,1.1082,1.1044,1.1015,1.1014,1.0936,1.0937,1.0936,1.0849,1.0857,1.0827,1.0789,1.0813,1.0822,1.0791,1.0879,1.084,1.0849,1.0849,1.0863,1.0878,1.0892,1.0716,1.0715,1.0715,0,0,1.1223,1.119,1.1208,1.1181,1.1138,1.1095,1.11,1.1044,1.102,1.1027,1.0962,1.096,1.0944,1.0919,1.0905,1.0996,1.0948,1.0994,1.1064,1.1081,1.1094,1.1105,1.1138,1.115,1.1,1.1,1.1001,0,1.1298,1.1291,1.1225,1.123,1.1216,1.1136,1.1155,1.1132,1.1088,1.1081,1.1047,1.1025,1.0994,1.1011,1.1033,1.1024,1.1028,1.1,1.1097,1.1107,1.1116,1.1147,1.116,1.1006,1.1006,1.1005,1.1004,0,1.1385,1.1382,1.1402,1.136,1.1348,1.1361,1.1298,1.1294,1.1252,1.1213,1.1222,1.1181,1.1159,1.116,1.1119,1.1172,1.1154,1.111,1.1051,1.1138,1.1166,1.1177,1.1015,1.1013,1.1011,1.1009,0,0,1.1552,1.1473,1.1482,1.1462,1.1409,1.1405,1.1415,1.1391,1.139,1.1362,1.1369,1.1357,1.1315,1.1299,1.1255,1.1271,1.1346,1.1224,1.1222,1.1249,1.1402,1.1437,1.1451,1.1313,1.1315,1.1317,1.1406,0,1.1643,1.1653,1.1594,1.162,1.1617,1.1541,1.1549,1.1518,1.1482,1.1475,1.1435,1.1428,1.1374,1.1363,1.1375,1.1335,1.1376,1.1327,1.1321,1.1321,1.1333,1.1466,1.1502,1.1588,1.1416,1.1418,1.1419,0,1.175,1.1727,1.1753,1.1698,1.1695,1.1703,1.1677,1.1671,1.1634,1.1607,1.1589,1.1538,1.1545,1.1488,1.1497,1.1465,1.1458,1.1438,1.144,1.1438,1.1376,1.1468,1.1613,1.1627,1.1436,1.1434,1.1433,0,1.187,1.1846,1.1858,1.1843,1.178,1.1788,1.1762,1.1723,1.1713,1.169,1.1683,1.1663,1.1652,1.1638,1.1583,1.1547,1.1599,1.1537,1.1577,1.1579,1.1592,1.1592,1.174,1.1587,1.1587,1.1587,1.1587,0,1.1978,1.1997,1.1911,1.1919,1.1938,1.187,1.1892,1.1859,1.1825,1.1826,1.1759,1.1762,1.1688,1.1683,1.1641,1.1655,1.165,1.1629,1.1618,1.1636,1.1639,1.1631,1.1624,1.159,1.1589,1.1589,1.1588,0,1.2116,1.2059,1.2067,1.2006,1.1991,1.2009,1.1957,1.1962,1.1922,1.1924,1.1921,1.1858,1.1848,1.1792,1.177,1.1741,1.1771,1.1747,1.1783,1.1775,1.1819,1.1816,1.1967,1.1984,1.1821,1.1823,1.1824,0,1.2189,1.2201,1.2141,1.2137,1.2114,1.2107,1.2096,1.203,1.2022,1.1981,1.1992,1.1977,1.1961,1.195,1.1903,1.1886,1.1861,1.1916,1.1859,1.1876,1.1863,1.1863,1.1865,1.1928,1.193,1.1932,1.1934,0,1.2324,1.2295,1.2281,1.2258,1.2246,1.2225,1.22,1.22,1.2127,1.2122,1.211,1.2098,1.2075,1.2061,1.2036,1.201,1.1961,1.1952,1.196,1.1979,1.2,1.199,1.1817,1.1949,1.1947,1.1946,1.1945,1.1945,1.2432,1.244,1.2399,1.2386,1.236,1.2338,1.234,1.2299,1.2288,1.2264,1.2226,1.222,1.2184,1.2144,1.2123,1.2118,1.209,1.2102,1.2105,1.2109,1.2119,1.2,1.2114,1.2113,1.2112,1.2112,1.2112,0,1.2564,1.2534,1.2523,1.2489,1.248,1.2432,1.2402,1.2397,1.2392,1.2362,1.2348,1.2336,1.2322,1.2274,1.2255,1.2261,1.2238,1.2258,1.2258,1.2253,1.2145,1.214,1.2277,1.2277,1.2277,1.2277,1.2277,1.2277,1.2632,1.2643,1.261,1.2608,1.2578,1.2571,1.2558,1.2538,1.2513,1.2502,1.249,1.2458,1.2421,1.2399,1.2385,1.2371,1.2368,1.2396,1.2375,1.2276,1.226,1.2245,1.224,1.2396,1.2396,1.2483,1.2484,1.2484]},{"header":{"parameterUnit":"m.s-1","parameterCategory":1,"la1":30.2991,"la2":30.254,"lo1":-89.0895,"lo2":-89.0444,"dy":0.0017,"dx":0.0017,"nx":28,"ny":28,"refTime":"2025-03-18T09:00:00:Z","depth":0,"parameterNumber":3,"parameterNumberName":"V-component_of_WINDS"},"data":[0,0,0,0,0,0,0,0,0,0,0,0,0,0,0,0,0,0,0,0,0,0,0,0,0,0,0,0,0,0,0,0,0,0,0,0,0,0,0,0,0,0,0,0,0,0,0,0,0,0,0,0,0,0,0,0,0,0,6.0748,6.075,0,6.0956,6.0958,6.096,6.0989,6.0987,6.0985,6.0983,6.1188,6.1195,6.1202,0,0,0,0,0,0,0,0,0,0,0,0,0,6.0367,6.0374,6.0748,6.075,6.0753,6.0955,6.0958,6.0961,6.0989,6.0987,6.0985,6.0982,6.1185,6.1194,6.1203,0,0,0,0,0,0,0,0,0,0,0,0,0,6.0549,6.0376,6.0747,6.0792,6.0798,6.0955,6.0958,6.0962,6.099,6.0987,6.0984,6.0981,6.1182,6.1193,6.1204,6.1328,0,0,6.1237,6.1242,0,0,0,0,0,0,0,0,6.0539,6.0563,6.0783,6.0789,6.0796,6.0944,6.0899,6.1084,6.0991,6.0917,6.0983,6.098,6.1108,6.1125,6.117,6.1338,6.1347,6.1238,6.1244,6.1249,6.1252,0,0,0,0,0,0,0,6.0526,6.0554,6.083,6.0786,6.0794,6.0799,6.0821,6.0934,6.1026,6.0923,6.0925,6.095,6.1111,6.116,6.1175,6.135,6.1238,6.1247,6.1254,6.1258,6.1629,6.1633,0,0,0,0,0,0,6.0507,6.0544,6.0823,6.0836,6.0658,6.0808,6.0833,6.0899,6.1025,6.1041,6.0952,6.0951,6.1142,6.1162,6.1182,6.1337,6.1249,6.1259,6.1265,6.1626,6.163,6.1634,0,0,0,0,0,0,6.0498,6.0531,6.0815,6.0691,6.0727,6.0817,6.0891,6.0905,6.0953,6.1047,6.1063,6.0986,6.1141,6.1167,6.1292,6.1344,6.1264,6.1274,6.1622,6.1627,6.1632,6.1647,0,0,0,0,0,0,6.0487,6.0528,6.0579,6.0692,6.0734,6.0924,6.0894,6.0911,6.0973,6.0973,6.1082,6.1098,6.1141,6.1276,6.1303,6.1358,6.1282,6.1618,6.1624,6.163,6.1642,6.1652,6.166,0,0,0,0,0,6.0474,6.0573,6.0581,6.0615,6.0799,6.0927,6.0951,6.1001,6.0977,6.1027,6.1087,6.1094,6.1334,6.1289,6.1319,6.1378,6.1615,6.1623,6.163,6.1638,6.165,6.166,0,0,0,0,0,0,6.046,6.0588,6.0599,6.0738,6.0822,6.0932,6.0997,6.1012,6.1102,6.1097,6.1153,6.1177,6.13,6.1351,6.1298,6.1505,6.1472,6.1486,6.1467,6.1479,6.1488,6.1473,6.1291,0,0,0,0,0,6.0474,6.057,6.0676,6.0788,6.083,6.0906,6.0963,6.0995,6.1083,6.1117,6.1187,6.1269,6.1363,6.1424,6.1515,6.1649,6.1672,6.1704,6.1713,6.172,6.1732,6.1805,6.182,6.1658,6.1658,6.1658,0,0,6.0503,6.0584,6.0641,6.0787,6.0856,6.0952,6.0935,6.1037,6.1108,6.1132,6.1256,6.1309,6.1404,6.1534,6.1595,6.1581,6.1781,6.173,6.1734,6.1743,6.1815,6.183,6.1843,6.1664,6.1663,6.1662,0,0,6.0604,6.0676,6.0778,6.0847,6.0952,6.1002,6.1026,6.1135,6.1172,6.1297,6.1317,6.14,6.1561,6.1629,6.1684,6.181,6.1819,6.1838,6.1885,6.1956,6.1969,6.198,6.2025,6.2041,6.1849,6.1849,6.1849,0,6.0626,6.0774,6.0827,6.093,6.0993,6.1021,6.1123,6.1187,6.1315,6.1357,6.134,6.1542,6.1608,6.1755,6.1785,6.1829,6.1857,6.1826,6.1963,6.1975,6.1987,6.203,6.2047,6.185,6.185,6.185,6.185,0,6.0795,6.0897,6.0966,6.1093,6.1163,6.1265,6.1331,6.1396,6.142,6.1471,6.1597,6.1678,6.1786,6.1823,6.1847,6.1972,6.196,6.1952,6.192,6.2003,6.2044,6.2062,6.1853,6.1852,6.1852,6.1851,0,0,6.0895,6.105,6.1075,6.1133,6.125,6.1329,6.143,6.1539,6.1593,6.1679,6.1765,6.19,6.1894,6.1957,6.1988,6.205,6.2145,6.2035,6.2038,6.2053,6.2287,6.2293,6.2312,6.2151,6.2155,6.2158,6.2279,0,6.101,6.1197,6.1247,6.1403,6.1498,6.1525,6.1613,6.1693,6.1743,6.1828,6.1881,6.1977,6.1961,6.1999,6.2062,6.212,6.2193,6.2112,6.223,6.2233,6.2206,6.2334,6.234,6.2451,6.2296,6.2299,6.2301,0,6.1171,6.1264,6.1431,6.1536,6.1577,6.1656,6.176,6.1842,6.1932,6.1963,6.2033,6.2059,6.2163,6.2124,6.2267,6.2211,6.2262,6.2297,6.2303,6.2316,6.2273,6.2351,6.2488,6.2505,6.2327,6.2325,6.2323,0,6.1227,6.1394,6.1516,6.1564,6.169,6.1745,6.1799,6.1887,6.1949,6.2038,6.2078,6.2177,6.2231,6.2305,6.2356,6.2323,6.2494,6.246,6.2522,6.2521,6.2557,6.2555,6.2705,6.2589,6.2588,6.2588,6.2588,0,6.1352,6.1452,6.1543,6.1618,6.1731,6.1786,6.1895,6.195,6.2028,6.2112,6.2139,6.2216,6.2279,6.2363,6.2403,6.2515,6.2538,6.2565,6.2575,6.2564,6.256,6.2598,6.2592,6.2593,6.2592,6.2591,6.259,0,6.1435,6.15,6.1634,6.1743,6.1772,6.1851,6.1942,6.2014,6.2065,6.217,6.2198,6.2276,6.2377,6.2435,6.2561,6.2587,6.2712,6.2717,6.2683,6.2687,6.2746,6.2739,6.2927,6.2954,6.2818,6.2819,6.282,0,6.1511,6.1589,6.1707,6.1767,6.1823,6.1918,6.1983,6.2039,6.2104,6.2213,6.2271,6.2375,6.2461,6.262,6.2686,6.2782,6.279,6.2849,6.2805,6.2791,6.2792,6.2787,6.2795,6.2857,6.2858,6.2859,6.286,0,6.1638,6.1666,6.176,6.1864,6.1941,6.2025,6.2108,6.2154,6.2224,6.2295,6.2401,6.2468,6.2598,6.27,6.2801,6.2854,6.2868,6.2874,6.2893,6.2883,6.286,6.2873,6.2704,6.2869,6.2868,6.2868,6.2867,6.2867,6.172,6.1792,6.1886,6.1989,6.2058,6.2135,6.2208,6.2269,6.2359,6.2472,6.2498,6.2609,6.2695,6.2834,6.2889,6.2974,6.2963,6.2991,6.2999,6.3005,6.3007,6.2846,6.2992,6.2992,6.2992,6.2992,6.2992,0,6.185,6.1912,6.2006,6.2123,6.2203,6.2213,6.2305,6.237,6.2469,6.2549,6.2634,6.2754,6.2853,6.2927,6.3027,6.3081,6.309,6.3105,6.3102,6.3113,6.3011,6.2984,6.3096,6.3096,6.3096,6.3096,6.3096,6.3096,6.1927,6.2048,6.2087,6.2242,6.2303,6.2414,6.2466,6.2536,6.2601,6.2736,6.2819,6.2868,6.2945,6.3051,6.3141,6.3159,6.3195,6.3209,6.3229,6.3132,6.3121,6.311,6.3086,6.3217,6.3217,6.3325,6.3326,6.3326]}]]